Location: Street
(51.1247°N, 2.7429°W)
Time: 18:04:42
(UTC+00:00)

Courier 1B Rocket - Pass Details

Date: 04 December 2020
Orbit: 920 x 1202 km, 28.2° (Epoch: 14 January)

Event Time Altitude Azimuth Distance (km) Brightness Sun altitude
Rises 06:15:53 0° 233° (SW) 4,079 7.9 -15.0°
Reaches altitude 10° 06:21:20 10° 203° (SSW) 3,128 7.6 -14.2°
Maximum altitude 06:23:32 11° 186° (S) 3,024 7.7 -13.8°
Drops below altitude 10° 06:25:43 10° 169° (S) 3,121 8.0 -13.5°
Sets 06:31:08 0° 139° (SE) 4,054 9.4 -12.7°
